Погода в Ленино-Кокушкине

Россия / Республика Татарстан     55°49′30″N   49°41′02″E
темп.,
°C
ветер,
м/с
пор.,
м/с
влажн.,
%
обл.,
%
осадки,
мм/ч
давл.,
гПа
погр.,
м
18 апреля, вс
вс1800:00+4св37774 0.0 1023128
03:00+3св37820 0.0 1023120
06:00+4св25745 0.0 1023114
09:00+10св45535 0.0 1022616
12:00+12св67435 0.0 10221600
15:00+12св874882 0.0 10221605
18:00+8всв796233 0.0 10241049
21:00+4всв713498 0.0 1026564
19 апреля, пн
пн1900:00+2всв61362100 0.0 1027586
03:00+1всв8145972 0.0 1028547
06:000всв7145640 0.0 1029625
09:00+3в10134029 0.0 10291116
12:00+6в9113310 0.0 10291485
15:00+7в9112914 0.0 10291609
18:00+5в712365 0.0 1030855
21:00+2в615430 0.0 1031489
20 апреля, вт
вт2000:00+1в614500 0.0 1031379
03:00−1в511570 0.0 1032256
06:00+1в511560 0.0 1033329
09:00+5вюв79330 0.0 1033990
12:00+8вюв78290 0.0 10321275
15:00+9юв67270 0.0 10311403
18:00+7вюв47390 0.0 1030180
21:00+4вюв512476 0.0 1030246
21 апреля, ср
ср2100:00+2юв513545 0.0 1030263
03:00+1юв5145858 0.0 1029275
06:00+2юв71554100 0.0 1029562
09:00+6юв91539100 0.0 1028927
12:00+9ююв101330100 0.0 10261151
15:00+10ююв81335100 0.0 10251309
18:00+8ююв71444100 0.1 1025966
21:00+6ю71355100 0.1 10251095
22 апреля, чт
чт2200:00+4ю81592100 1.4 1025834
03:00+4ю71397100 2.6 1025780
06:00+4ю61292100 0.1 1026717
09:00+5ю51092100 0.3 1027567
12:00+5ю5990100 0.1 1028613
15:00+7ю6885100 0.1 1028634
18:00+6ююв5886100 0.0 1028463
21:00+5ююв4992100 0.0 1029322